Location: Newark
(35.6799°N, 139.7636°E)
Time: 07:15:28
(UTC+00:00)

deb Explorer IX - All Passes

Search period start: 16 December 2019 00:00
Search period end: 26 December 2019 00:00
Orbit: 546 x 1104 km, 38.8° (Epoch: 15 December)

Date Brightness Start Highest point End Pass type
(mag) Time Alt. Az. Time Alt. Az. Time Alt. Az.
16 Dec - 03:56:04 10° SW 04:00:25 42° SSE 04:05:28 10° E daylight
16 Dec - 05:42:15 10° W 05:47:18 75° NNW 05:53:18 10° ENE daylight
16 Dec - 07:29:15 10° WNW 07:34:50 67° N 07:41:23 10° E daylight
16 Dec - 09:16:10 10° WNW 09:22:19 74° SSW 09:29:20 10° ESE visible
16 Dec - 11:03:50 10° W 11:09:22 28° SW 11:15:17 10° SSE visible
17 Dec - 03:34:09 10° SW 03:38:24 42° SSE 03:43:17 10° E daylight
17 Dec - 05:20:22 10° W 05:25:15 74° NNW 05:31:04 10° ENE daylight
17 Dec - 07:07:19 10° WNW 07:12:43 67° N 07:19:07 10° E daylight
17 Dec - 08:54:11 10° WNW 09:00:10 72° SSW 09:07:03 10° ESE visible
17 Dec - 10:41:50 10° W 10:47:11 27° SW 10:52:58 10° SSE visible
18 Dec - 03:12:14 10° SW 03:16:23 43° SSE 03:21:08 10° E daylight
18 Dec - 04:58:28 10° W 05:03:13 73° NNW 05:08:49 10° ENE daylight
18 Dec - 06:45:23 10° WNW 06:50:39 66° N 06:56:52 10° E daylight
18 Dec - 08:32:12 10° WNW 08:38:01 71° SSW 08:44:46 10° ESE visible
18 Dec - 10:19:51 10° W 10:25:00 26° SW 10:30:37 10° SSE visible
19 Dec - 02:50:19 10° SW 02:54:23 43° SSE 02:58:58 10° E daylight
19 Dec - 04:36:34 10° W 04:41:11 72° N 04:46:37 10° ENE daylight
19 Dec - 06:23:28 10° WNW 06:28:34 66° N 06:34:36 10° E daylight
19 Dec - 08:10:15 10° WNW 08:15:53 69° SSW 08:22:28 10° ESE visible
19 Dec - 09:57:53 10° W 10:02:50 25° SW 10:08:15 10° SSE visible
20 Dec - 02:28:23 10° SW 02:32:23 43° SSE 02:36:51 10° E daylight
20 Dec - 04:14:40 10° W 04:19:10 70° N 04:24:25 10° ENE daylight
20 Dec - 06:01:33 10° WNW 06:06:30 65° N 06:12:21 10° E daylight
20 Dec - 07:48:17 10° WNW 07:53:45 68° SSW 08:00:10 10° ESE visible
20 Dec - 09:35:57 10° W 09:40:40 24° SW 09:45:52 10° SSE visible
21 Dec - 02:06:27 10° SW 02:10:24 43° SSE 02:14:44 10° E daylight
21 Dec - 03:52:46 10° W 03:57:10 69° N 04:02:14 10° ENE daylight
21 Dec - 05:39:38 10° WNW 05:44:27 65° N 05:50:07 10° E daylight
21 Dec - 07:26:21 10° WNW 07:31:39 66° SSW 07:37:53 10° ESE daylight
21 Dec - 09:14:01 10° W 09:18:31 22° SW 09:23:29 10° SSE visible
22 Dec - 01:44:30 10° SW 01:48:24 44° SSE 01:52:38 10° E daylight
22 Dec - 03:30:52 10° W 03:35:10 68° N 03:40:04 10° ENE daylight
22 Dec - 05:17:44 10° WNW 05:22:24 65° N 05:27:53 10° E daylight
22 Dec - 07:04:25 10° WNW 07:09:33 64° SSW 07:15:35 10° ESE daylight
22 Dec - 08:52:08 10° W 08:56:23 21° SW 09:01:05 10° SSE visible
23 Dec - 01:22:31 10° SW 01:26:25 44° SSE 01:30:34 10° E daylight
23 Dec - 03:08:57 10° W 03:13:10 67° N 03:17:55 10° ENE daylight
23 Dec - 04:55:50 10° WNW 05:00:22 64° N 05:05:41 10° E daylight
23 Dec - 06:42:30 10° WNW 06:47:28 62° SSW 06:53:18 10° SE daylight
23 Dec - 08:30:15 10° W 08:34:15 20° SW 08:38:40 10° S visible
24 Dec - 01:00:33 10° SW 01:04:26 45° SSE 01:08:31 10° E daylight
24 Dec - 02:47:02 10° W 02:51:11 65° N 02:55:46 10° ENE daylight
24 Dec - 04:33:55 10° WNW 04:38:21 64° N 04:43:29 10° E daylight
24 Dec - 06:20:34 10° WNW 06:25:22 60° SSW 06:31:02 10° SE daylight
24 Dec - 08:08:23 10° WSW 08:12:08 19° SW 08:16:15 10° S visible
25 Dec - 00:38:32 10° SW 00:42:27 46° SSE 00:46:29 10° E daylight
25 Dec - 02:25:06 10° W 02:29:12 64° N 02:33:40 10° ENE daylight
25 Dec - 04:12:00 10° WNW 04:16:20 64° N 04:21:18 10° E daylight
25 Dec - 05:58:39 10° WNW 06:03:19 58° SSW 06:08:46 10° SE daylight
25 Dec - 07:46:33 10° WSW 07:50:01 18° SW 07:53:49 10° S daylight
